Garden City Regional Airport
KGCK : now visible

Airfield :











YOU CAN JOIN US ON...

 
LOGIN :

Register | Disclaimer

   EN    FR    IT 

 









Legend :    VFR   Marginal VFR   IFR   Intensive IFR   Very Intensive IFR
Visi :
Ceiling :
>= 8 km
>= 3000ft
5 to 8 km
1000 to 3000 ft
1500m to 5 km
500 to 1000 ft
800 to 1500m
200 to 500 ft
< 800m
< 200 ft
Symbols :   Thunderstorms  Fog  Heavy snow  Heavy precipitations  Wind > 20 kt







- Airport Elevation : 2891 ft
- IATA code : GCK


KGCK - Garden City Regional

CURRENT METAR :
  • 181054Z AUTO 18008KT 10SM CLR 23/17 A2984 RMK AO2 SLP060 T02280167

EXPIRED METARs :
  • 180954Z AUTO 20011KT 10SM CLR 24/17 A2984 RMK AO2 SLP059 T02440167
  • 180854Z AUTO 19012KT 10SM CLR 24/17 A2983 RMK AO2 SLP056 T02440172 56003

TAF KGCK
Valid from the 18 at 06:00 until the 19 at 06:00 UTC


180521Z 1806/1906 18013KT P6SM BKN200
FM181700 20018KT P6SM SKC
FM190100 16013KT P6SM SKC
KZKC FIR / North America



MET'MAP, your aeronautical weather chart ! - Copyright ORBIFLY December 2007 - Disclaimer

ORBIFLY MET'MAP TEAM :

Programming & Development : Alexandra Zaïnal
Concept & Development : Baudouin d'Aumeries
Co-Development & Prog : Marc-Olivier Méhu
Technical & hardware support : Manuel Goepfert

Contact : metmap@orbifly.com




SOURCES & CREDITS :

   NOAA       Earth
Advisory